Regional Weather Roundup
Issued by NWS

Home | Current Version | Previous Version | Graphics & Text | Print | Product List | Glossary On
Versions: 1 2 3 4 5 6 7 8 9 10 11 12 13 14 15 16 17 18 19 20 21 22 23 24 25 26 27 28 29 30 31 32 33 34 35 36 37 38 39 40 41 42 43 44 45 46 47 48 49 50
000
ASUS43 KBIS 081202
RWRND

NORTH DAKOTA REGIONAL WEATHER ROUNDUP
NATIONAL WEATHER SERVICE BISMARCK ND
600 AM CST MON FEB 08 2016

NOTE: "FAIR" INDICATES FEW OR NO CLOUDS BELOW 12,000 FEET WITH NO
SIGNIFICANT WEATHER AND/OR OBSTRUCTIONS TO VISIBILITY.


NDZ001>003-009>011-017-081300-
NORTHWEST NORTH DAKOTA

CITY           SKY/WX    TMP DP  RH WIND       PRES   REMARKS
WILLISTON      CLEAR     23  16  74 NW13      30.35R WCI  11
6HR MIN TEMP:  23; 6HR MAX TEMP:  27;

MINOT          CLEAR     24  15  68 W21       30.24R WCI   9
MINOT AFB      CLEAR     22  17  84 NW21G26   30.24R WCI   6
$$

NDZ018>021-031>035-040>046-081300-
SOUTHWEST NORTH DAKOTA

CITY           SKY/WX    TMP DP  RH WIND       PRES   REMARKS
BISMARCK       CLEAR     27  17  66 NW20G31   30.24S WCI  13
6HR MIN TEMP:  27; 6HR MAX TEMP:  30;

DICKINSON      CLEAR     18  13  80 W14       30.28S WCI   4
GARRISON         N/A     20  17  88 NW21      30.24S WCI   4
6HR MIN TEMP:  20; 6HR MAX TEMP:  26;

HETTINGER ARPT CLEAR     19  13  77 NW12      30.31S WCI   7
$$

NDZ004>008-012>016-024-026-027-054-081300-
NORTHEAST NORTH DAKOTA

CITY           SKY/WX    TMP DP  RH WIND       PRES   REMARKS
GRAND FORKS    LGT SNOW  13   8  81 N18       30.14R BLWGSNOWWCI  -4
GRND FRKS AFB  FLURRIES  13   8  79 N17       30.14S WCI  -3
DEVILS LAKE    FLURRIES  16  12  84 N13       30.16R WCI   2
$$

NDZ022-023-025-028>030-036>039-047>053-081300-
SOUTHEAST NORTH DAKOTA

CITY           SKY/WX    TMP DP  RH WIND       PRES   REMARKS
FARGO          FOG       13   9  84 N30G40    30.13R VSB 1/2 WCI  -8
6HR MIN TEMP:  13; 6HR MAX TEMP:  16; 6HR PCP:  0.02;

JAMESTOWN      CLOUDY    20  12  71 NW25      30.12S WCI   2
$$




USA.gov is the U.S. government's official web portal to all federal, state and local government web resources and services.